Theta_e
296 296 297 298 298 300 300 303 300 302 304 307 310 313 317 319 320 320 323 328 332 335 338 341 342 344 345 345 348 349 351 351 352 355 357 357 358 358 359 360 359 359 358 359
292 296 297 296 299 300 300 301 301 302 303 311 314 316 316 318 319 321 322 326 332 336 339 341 341 343 344 345 347 350 351 350 353 355 357 357 357 358 359 359 360 360 358 357
289 294 295 293 298 300 301 303 303 299 306 311 310 312 316 319 321 321 323 328 332 335 339 343 341 343 343 345 349 350 351 352 354 355 355 356 357 358 358 358 360 359 359 358
289 292 286 299 305 306 303 304 306 305 307 310 312 316 318 321 321 322 324 325 328 330 335 340 340 339 345 346 349 350 351 353 355 355 355 356 356 356 357 357 357 359 359 359
286 289 293 296 301 307 306 304 311 308 309 310 312 314 317 319 321 323 326 328 328 327 331 341 342 343 345 346 348 350 350 352 354 354 355 356 355 355 356 356 356 356 359 360
289 285 285 297 303 309 312 300 313 315 314 314 315 306 311 323 320 321 322 324 326 329 330 334 341 340 344 345 348 348 350 352 355 356 355 355 356 356 358 357 356 354 356 359
286 286 292 301 308 315 301 303 316 318 319 319 316 315 322 323 322 324 326 327 329 329 331 339 339 343 345 346 346 349 353 355 356 357 357 356 358 359 359 358 358 358 357 358
287 285 283 302 309 304 311 316 318 320 322 320 322 325 326 327 326 322 325 325 325 328 331 335 340 343 344 347 350 354 355 353 357 359 355 355 358 354 359 355 350 358 359 356
291 290 300 304 306 315 317 316 318 320 324 324 322 325 330 330 327 327 338 336 326 330 337 341 344 344 347 352 351 351 351 354 356 357 357 360 359 358 355 356 351 352 354 353
295 298 301 304 308 312 317 318 320 324 325 324 324 329 333 331 332 343 346 341 340 348 346 346 348 348 349 349 353 355 353 354 356 355 356 358 357 357 355 355 356 354 354 352
294 296 299 304 307 312 317 320 322 325 323 322 330 334 329 335 342 341 341 342 345 346 346 348 352 354 356 352 352 350 350 351 352 353 352 345 335 341 359 363 352 357 356 350
290 299 300 302 307 312 314 319 323 323 320 325 334 335 337 338 339 340 340 342 342 342 342 345 350 352 350 355 355 352 348 346 339 337 337 333 330 324 308 309 310 310 310 323
297 302 302 305 305 306 308 319 321 319 322 325 333 333 330 330 332 327 334 334 335 335 338 342 346 343 346 348 347 343 339 336 333 335 333 331 333 331 324 318 304 305 308 308
302 300 298 301 301 307 317 321 318 320 326 327 329 331 330 329 329 328 330 332 333 334 334 336 337 338 341 345 342 342 338 321 337 338 337 336 336 335 334 327 323 321 309 304
299 300 302 304 309 312 320 318 317 319 325 326 328 327 327 325 325 325 329 335 336 333 331 332 333 336 338 340 339 339 338 337 337 337 335 330 330 328 329 330 332 324 318 310
303 308 305 303 309 315 315 314 318 322 324 327 328 326 325 325 325 325 327 329 328 328 330 330 331 333 336 336 336 335 331 323 328 332 333 336 335 335 331 328 326 320 319 314
302 307 309 311 311 313 313 314 318 324 325 324 324 327 327 325 324 324 322 324 324 324 328 332 334 339 337 336 335 332 331 332 325 332 333 334 334 333 330 328 324 321 318 314
311 314 313 313 313 314 315 316 322 321 319 320 321 323 320 317 316 317 318 321 320 318 320 326 331 336 338 339 337 335 332 331 331 332 331 331 330 329 328 326 324 320 315 314
314 314 315 315 316 317 316 318 320 321 321 320 316 314 312 310 310 311 314 313 313 313 315 319 320 329 332 329 335 337 336 334 333 332 330 323 330 331 328 327 324 323 319 321
307 308 309 310 315 316 315 315 315 316 319 316 312 310 310 311 313 313 314 312 313 313 318 318 321 321 325 329 329 335 336 335 335 333 332 331 330 329 326 316 324 324 325 325
301 304 304 305 306 310 312 312 311 309 310 310 310 310 311 311 311 314 312 310 312 315 315 316 317 319 319 325 327 329 331 332 332 331 330 329 328 327 326 328 326 325 325 324
302 301 303 303 303 303 305 305 305 305 306 309 309 309 310 310 310 309 308 308 310 309 311 313 315 314 318 320 326 328 326 328 328 327 328 327 325 321 320 321 322 323 323 319
302 301 301 303 302 302 302 303 303 303 303 306 310 310 308 308 309 309 305 307 307 307 310 310 310 312 313 316 317 317 315 315 318 323 325 325 327 327 323 319 319 319 318 317
301 302 302 302 300 299 298 299 300 300 303 304 304 305 309 307 305 305 305 303 304 307 307 308 310 310 312 315 313 312 311 314 314 316 317 309 317 316 314 310 309 311 314 315
300 300 300 300 300 300 301 301 300 301 301 300 299 299 300 302 300 299 303 304 302 305 307 305 306 307 312 314 313 311 310 307 306 308 310 310 308 305 304 303 305 308 308 308
297 297 298 299 300 300 300 300 298 299 300 299 300 301 301 302 301 302 301 301 301 302 303 304 305 307 307 308 309 310 310 309 310 310 308 307 304 303 302 300 301 301 302 304
297 295 299 298 298 298 298 297 297 296 298 299 297 299 300 300 300 299 299 299 299 300 300 301 302 302 303 304 305 306 307 308 303 308 309 309 309 309 308 308 307 306 304 302
Wind_Speed
6 8 8 10 13 11 18 24 24 19 24 18 15 13 13 10 8 11 11 12 13 15 15 15 17 18 19 19 18 20 20 21 23 21 21 20 20 20 19 19 18 19 18 18
10 10 12 14 15 15 17 18 19 22 25 8 14 19 17 17 17 14 14 14 13 14 14 15 18 18 18 19 20 20 21 23 21 19 20 21 20 20 19 20 19 18 19 19
7 8 14 17 21 20 17 15 16 22 16 15 19 13 18 18 16 16 14 13 10 12 14 15 18 18 19 20 17 19 20 20 19 19 20 20 19 19 21 21 18 20 20 20
5 3 12 5 6 8 15 18 21 22 18 16 19 19 18 18 19 17 15 16 14 13 13 16 17 19 17 17 18 18 18 18 17 18 19 17 18 20 20 19 21 19 20 20
6 12 17 21 8 1 3 12 9 17 19 20 21 21 18 17 17 18 18 15 13 13 15 11 14 16 15 16 18 18 19 19 20 19 19 19 21 22 19 17 18 19 18 20
5 10 14 1 9 6 4 14 5 5 6 7 11 16 12 14 19 20 20 16 14 15 11 11 13 14 15 17 17 19 20 22 19 18 18 21 22 19 16 17 18 14 16 18
14 11 8 9 3 5 9 0 6 5 8 10 9 11 15 15 12 14 16 16 14 12 11 10 5 11 15 15 19 22 15 14 16 17 17 14 12 11 12 12 10 13 16 16
12 11 21 11 8 9 5 5 9 10 9 12 15 19 22 24 17 14 13 13 10 9 8 4 6 11 13 16 15 9 10 13 13 13 12 12 14 12 13 12 8 7 13 13
10 7 12 15 15 16 11 13 12 14 13 14 16 22 21 19 16 12 8 5 4 7 6 3 3 8 11 9 9 10 11 11 12 12 13 12 13 13 12 12 13 15 16 12
10 11 18 24 21 18 13 17 18 16 17 14 18 21 22 17 12 8 5 7 9 11 10 9 6 4 6 9 10 10 11 13 12 12 12 13 10 11 12 13 14 11 8 11
13 20 23 22 21 18 16 16 18 15 13 18 20 19 17 11 10 8 8 9 10 12 10 12 9 9 7 6 7 6 6 6 8 7 8 5 3 2 9 8 10 12 9 6
11 11 9 17 16 20 21 18 14 13 12 17 7 5 7 9 8 9 9 11 11 12 12 11 11 12 10 8 8 9 9 7 7 8 7 6 6 7 14 5 14 14 11 11
20 17 16 24 23 27 28 18 12 12 11 9 4 9 9 10 9 9 11 12 10 11 10 10 11 10 10 10 10 9 9 9 7 9 8 9 10 11 10 9 14 13 18 15
21 17 24 27 20 18 19 12 5 11 8 5 7 10 10 11 10 9 11 10 10 11 11 10 10 10 9 9 9 9 9 9 8 8 8 9 9 10 10 9 7 4 6 7
24 23 25 21 16 19 15 3 6 10 6 11 10 11 11 11 12 9 9 9 11 13 13 12 12 11 8 8 8 8 7 6 6 6 6 6 7 8 8 7 4 4 2 5
15 18 22 23 17 11 8 5 12 11 10 14 15 14 13 13 13 14 13 12 10 11 12 13 10 9 8 8 9 9 8 10 8 6 6 6 6 5 4 4 3 4 4 4
16 13 19 16 7 7 8 2 8 11 13 13 15 16 16 17 16 15 14 13 12 11 13 14 11 10 11 11 9 7 7 6 7 6 5 4 4 4 5 5 4 4 5 4
6 9 7 12 8 8 6 3 7 18 15 16 14 15 15 17 13 10 8 9 12 12 19 13 9 10 11 10 9 8 7 6 6 3 5 4 3 3 4 5 6 6 4 4
13 9 9 10 8 9 11 7 12 16 18 17 19 15 13 18 10 5 11 13 10 14 12 11 11 12 11 9 7 5 7 6 5 5 5 5 2 1 2 3 4 5 7 7
24 22 22 18 15 12 12 11 11 15 16 16 23 11 12 10 8 11 12 14 11 6 9 13 11 10 10 10 6 5 7 5 6 6 7 6 4 3 4 5 4 7 7 5
24 24 24 23 20 18 17 15 15 17 15 16 17 11 12 12 13 11 14 13 15 13 13 17 15 9 8 6 5 8 8 6 6 5 6 7 6 6 6 4 4 5 5 3
18 18 17 18 16 18 17 15 15 15 15 14 12 10 13 12 13 16 16 11 8 14 13 13 12 16 12 13 9 9 7 8 7 5 5 5 6 6 6 5 5 5 4 3
14 14 16 15 15 15 16 15 15 14 15 15 15 15 14 12 10 10 11 12 10 14 12 12 16 19 17 13 12 11 11 10 10 10 8 6 8 7 6 5 5 3 3 3
15 15 15 11 14 16 15 13 14 15 15 16 16 14 10 10 12 12 10 7 11 18 16 15 17 19 19 14 13 14 12 12 11 10 10 11 9 8 8 8 8 7 8 8
13 14 15 16 13 11 11 9 10 11 13 14 14 13 15 12 10 7 9 11 17 15 15 17 20 19 15 14 14 14 13 12 9 10 11 10 8 9 8 9 10 9 8 8
13 9 8 14 11 10 9 10 10 10 10 12 12 11 12 10 10 10 11 13 14 16 13 13 14 13 13 13 12 13 12 11 12 11 10 10 10 10 10 9 8 9 9 8
11 13 9 9 10 10 10 11 11 11 11 11 12 11 11 11 10 12 10 11 13 13 13 14 14 13 12 12 13 12 11 10 10 9 9 9 8 8 8 9 9 8 8 8
Wind_Direction
307 299 292 269 262 244 236 234 231 238 237 231 246 280 277 276 268 277 235 214 211 218 212 202 201 200 201 203 199 198 198 202 208 203 204 207 208 207 208 206 207 205 201 206
300 293 284 275 255 251 244 243 256 260 261 262 239 238 252 272 286 280 275 249 220 221 217 204 201 200 199 201 199 192 196 205 205 204 203 206 205 206 207 209 207 208 207 204
257 305 309 269 243 241 243 243 240 242 251 254 248 239 247 247 249 250 244 245 240 217 213 206 203 196 201 200 190 195 199 206 203 203 207 207 204 203 208 208 207 209 208 208
269 266 241 281 321 293 247 246 240 246 244 247 250 245 232 239 251 258 260 259 246 235 226 218 217 207 202 190 192 195 203 204 204 203 208 204 205 210 210 206 207 209 211 208
231 226 283 288 252 213 314 262 298 267 246 238 243 257 247 239 248 249 257 260 251 256 244 228 212 208 194 188 189 193 201 205 204 200 201 199 206 210 209 207 209 213 213 212
195 240 234 322 249 266 179 264 103 336 293 278 306 249 258 234 232 239 243 249 249 245 235 236 217 199 188 191 189 201 204 207 201 201 203 204 210 210 208 211 214 212 218 220
230 249 259 272 317 136 218 345 324 300 300 296 269 265 295 306 295 260 250 237 238 243 234 229 213 186 196 193 200 210 205 204 202 203 205 209 213 216 217 223 237 231 223 216
226 243 239 271 275 231 356 317 315 313 306 285 280 279 273 279 283 287 290 263 228 226 235 259 195 185 201 201 208 192 194 197 198 194 201 200 201 199 200 185 184 239 249 247
222 216 267 296 289 303 318 296 306 301 301 289 283 276 274 269 273 262 257 236 175 157 135 79 167 195 196 193 169 161 173 187 190 191 194 202 199 196 195 188 205 199 200 221
267 254 263 273 291 305 290 300 301 296 294 289 279 274 269 257 233 193 165 125 134 126 123 106 95 132 168 164 163 163 169 180 181 184 186 195 200 203 201 203 202 210 197 218
270 277 277 274 268 296 293 289 284 286 297 298 277 267 239 198 165 138 127 118 125 119 116 101 98 90 91 146 163 162 166 162 169 181 166 131 77 249 212 202 218 215 208 196
251 249 289 281 298 319 297 286 287 294 313 294 275 216 164 140 119 114 107 106 109 103 98 93 88 81 71 83 118 125 120 119 123 126 119 116 104 67 30 41 131 116 132 123
252 260 272 276 289 290 290 275 294 297 284 290 34 78 72 76 71 84 100 96 89 89 81 73 71 71 71 84 99 104 112 119 123 136 128 129 131 122 110 47 30 101 120 122
254 263 259 259 265 263 259 243 304 276 240 87 76 66 78 80 70 70 81 89 88 85 82 76 67 53 48 73 83 98 110 116 137 145 147 149 147 145 144 144 141 126 44 43
250 240 242 250 263 237 239 224 239 231 138 95 83 75 66 62 63 58 62 70 89 88 86 86 84 74 66 77 87 93 91 99 108 119 127 127 127 137 153 155 158 132 131 59
254 222 217 221 226 202 192 146 246 102 92 102 95 79 75 69 64 58 55 58 56 69 77 70 67 64 69 80 87 84 73 68 82 100 117 128 141 143 109 109 146 163 170 145
227 199 189 191 185 165 104 284 271 101 96 91 98 100 89 80 69 62 51 49 57 45 65 59 55 72 82 85 84 86 84 81 80 94 107 125 139 156 162 137 129 137 138 177
156 117 108 123 145 127 102 316 58 74 75 70 76 84 85 71 63 43 34 42 45 39 41 38 38 54 59 70 83 84 82 84 87 94 95 123 127 161 153 144 157 135 113 110
77 101 107 92 95 92 77 73 89 89 84 80 66 53 53 73 58 42 61 49 28 45 20 23 18 44 53 46 61 73 91 104 119 105 94 92 121 105 92 123 125 132 144 150
36 43 48 41 58 68 77 63 76 78 81 86 88 75 56 69 78 67 69 59 36 25 25 29 39 39 31 37 49 83 78 97 109 105 95 96 83 72 90 82 132 146 152 158
28 39 43 35 38 40 51 52 58 59 63 67 77 85 78 65 58 61 59 57 25 24 32 35 30 25 43 18 49 69 79 68 75 83 86 84 87 74 58 44 88 100 113 135
36 39 43 44 41 38 27 39 45 48 49 55 51 57 62 58 71 66 53 47 18 27 40 36 35 35 46 39 24 49 70 95 101 89 72 76 81 80 77 66 58 76 78 74
31 38 37 38 58 58 49 37 41 40 46 48 53 59 60 60 48 58 54 29 48 48 51 40 26 34 47 50 54 51 45 44 40 35 38 70 62 52 57 50 50 53 72 41
29 31 41 48 49 47 41 30 44 41 43 49 50 43 54 70 64 59 63 40 52 63 60 43 37 42 50 54 52 55 45 53 53 50 52 43 55 53 49 47 47 36 33 36
27 30 30 31 34 35 38 39 53 54 53 52 47 46 52 48 60 46 48 48 38 51 51 37 44 44 51 50 53 56 52 58 43 56 62 63 61 66 57 53 46 48 57 41
27 28 32 38 39 36 36 46 55 45 60 66 60 55 55 55 51 57 54 42 47 46 48 44 39 45 48 48 51 53 50 42 43 50 68 74 66 68 77 77 63 68 69 64
31 24 31 42 32 30 33 43 49 43 43 53 62 51 52 55 61 65 61 58 55 51 48 46 43 37 39 38 42 43 42 51 51 49 37 46 59 71 81 86 97 99 89 72